Location: Jackson Park
(37.2862°N, 79.9123°W)
Time: 12:10:04
(UTC+00:00)

Vanguard 3 - Pass Details

Date: 19 May 2026
Orbit: 507 x 3204 km, 33.3° (Epoch: 11 June)

Event Time Altitude Azimuth Distance (km) Brightness Sun altitude
Rises 17:26:24 0° 238° (WSW) 5,815 11.7 72.5°
Reaches altitude 10° 17:29:46 10° 235° (SW) 5,099 11.5 72.3°
Maximum altitude 17:45:52 65° 158° (SSE) 3,316 12.1 71.4°
Drops below altitude 10° 18:05:02 10° 83° (E) 5,940 11.5 69.6°
Sets 18:09:20 0° 81° (E) 6,780 11.7 69.1°
